Temp_Advection
nan nan nan nan nan nan nan nan nan nan nan nan nan nan nan nan nan nan nan nan nan nan nan nan nan nan nan nan nan nan nan nan nan nan nan nan nan nan nan nan nan nan nan nan nan
nan -0 -0 -0 -0 -0 0 0 -0 -0 -0 -0 -1 -0 -0 -0 -1 0 -0 0 0 -0 0 -1 -1 -1 -1 -1 -2 -1 -0 -2 -2 -0 -0 0 1 0 0 0 0 -0 0 1 nan
nan -0 -0 -0 -0 -0 -0 0 -0 -0 -0 -0 -0 -0 -0 -0 -0 -0 0 0 0 0 0 -1 -1 -1 -1 -1 -1 0 -1 -2 -0 0 0 -0 -0 -0 -0 0 0 0 0 0 nan
nan -0 -0 -0 -0 -0 -0 -0 -0 0 -0 -0 -0 -0 -0 -1 -0 0 -0 -0 0 0 -0 -1 -1 -1 -1 -1 -0 -0 -1 -0 -0 -0 -0 0 -0 -1 -0 0 0 0 0 0 nan
nan -0 -0 -0 -0 -0 -0 -0 -0 -0 0 -0 -0 0 -1 -1 -1 0 0 0 0 0 -1 -1 -1 -1 -1 -0 -0 -0 0 0 -0 0 0 -0 -0 -0 -0 0 0 0 0 -0 nan
nan -1 -0 -0 -0 -0 0 -0 -0 -0 -0 -0 0 1 -0 -1 0 0 0 -0 -0 -0 -1 -0 -0 -0 -1 -1 -0 0 -0 0 -0 -0 0 -0 -0 -0 -0 -0 -0 -0 -0 -0 nan
nan -1 -0 -0 -0 -0 -0 -0 -0 0 -0 -0 0 0 -1 -1 -0 0 0 -0 -0 -0 -0 -0 -0 -0 -0 -0 0 -0 -1 -1 -0 -0 0 0 -1 -1 -0 -1 -1 -0 -0 -0 nan
nan -1 -1 -0 -0 -0 -0 -0 -0 -0 0 -0 1 0 -1 -0 0 -0 -0 -0 -0 -0 -0 -0 -0 -0 -1 -0 -0 -0 -0 -1 -1 -0 0 0 -1 -1 0 0 -0 -0 -0 -0 nan
nan -1 -1 -0 -0 -0 -0 -0 -0 0 -0 0 -0 -1 -1 0 -0 -0 -0 -0 -0 0 -0 -0 -0 -1 -0 0 -0 -0 -1 -1 -1 0 0 0 -1 -1 -0 -0 -0 -0 -0 -0 nan
nan -1 -1 -0 -0 -0 -0 -0 0 0 -0 0 -0 -1 -1 0 0 -0 -0 -0 -0 -0 -0 -0 -1 -0 -0 0 -1 -1 -0 0 -0 0 0 0 -1 -1 -1 -1 -0 -0 -0 -0 nan
nan -0 -1 -0 -0 -0 -0 0 0 0 -1 -1 1 0 -0 0 0 -0 -0 -0 -0 -0 -1 -1 -0 -1 -1 -0 -0 -0 -0 -1 -1 -0 0 -0 -1 -1 -1 -1 -0 0 -0 -0 nan
nan -0 -1 -0 -0 -0 -0 0 -0 -0 -1 0 0 -0 -0 -0 -0 -0 -0 -0 -1 -1 -0 0 -1 -1 -0 0 1 0 0 -1 -1 -0 0 -1 -1 -1 -0 -0 -0 -0 -0 -0 nan
nan -0 -0 0 -0 -0 0 -0 -0 -0 -1 -0 -0 -0 0 -0 -0 -0 0 -1 -0 -0 0 -0 -0 -0 -0 0 0 -0 -0 -0 -1 -1 -0 -0 -1 -2 -1 0 -1 -1 -0 -0 nan
nan -0 -0 0 -0 0 -0 -0 -0 0 -1 -0 -0 -0 -0 -0 -0 0 -0 -0 0 -0 -0 -0 0 0 1 0 -0 -0 -1 0 0 -0 -1 -0 -0 -2 -1 -0 -0 0 0 0 nan
nan 0 0 0 -0 -0 0 0 -0 0 -1 0 -0 -0 -0 -0 0 -0 -0 0 -0 -0 0 -0 0 0 -0 -1 -0 -0 -0 0 0 -0 -1 -1 -1 -1 -0 0 -0 0 0 0 nan
nan 0 0 -0 0 -0 -0 0 -0 -1 -0 0 0 0 -0 -0 0 -0 -0 -0 -0 -0 -0 -0 -0 0 -0 0 0 0 0 -0 -0 0 -0 -2 -1 -1 -0 -0 -0 -0 -0 0 nan
nan 0 0 0 -0 -0 -0 -0 -1 -0 0 -0 -0 -0 -0 -0 -0 -0 -0 -0 -0 -0 -1 -0 0 0 0 -0 0 0 0 -0 -0 0 -1 -0 -0 -1 -0 -0 -0 -0 -0 -1 nan
nan 0 -0 0 -0 0 -0 -1 -0 -0 -0 -0 -0 -0 -1 -0 -0 0 -0 -1 -0 0 0 0 -0 0 -0 0 -0 0 0 0 -0 -0 -0 -0 -0 0 0 -0 -0 -0 -1 -1 nan
nan -0 0 -0 -0 -0 -1 -1 -0 -0 -0 -0 -1 -1 -0 0 0 -1 -1 -1 -1 0 0 -0 -0 0 0 -0 0 0 -0 0 0 -0 -0 -1 -1 1 -1 -1 -1 -1 -1 -2 nan
nan -0 -0 0 -0 -0 -1 -0 -0 -0 -0 -0 -0 -0 -1 -1 -0 -1 -1 -0 -0 -0 -0 0 -0 0 -0 0 0 0 0 0 0 -0 -1 -1 2 -1 -1 -2 -2 -1 -2 -2 nan
nan -0 0 0 1 -0 -0 -0 -0 -0 -0 -0 -0 -0 -0 -1 -0 -1 -1 -1 -0 -0 -1 -1 -0 -0 0 -0 -0 -0 0 -0 -0 -0 -0 -0 -0 -0 -1 -1 -1 -1 -1 -1 nan
nan 0 0 1 0 -0 0 -0 -0 0 -0 -0 -0 -0 -0 -0 -0 -0 -1 -1 -0 0 -1 -1 -1 -1 -1 -1 -0 0 0 0 0 -0 0 0 -0 -0 -0 0 -0 -0 -1 -1 nan
nan -0 -0 0 0 0 0 0 0 0 -0 0 -0 -0 -0 0 -0 -0 -1 -0 -0 1 0 -0 -1 -1 -1 -1 1 1 -0 0 0 0 -0 -0 -0 -0 -0 0 0 -0 -1 -1 nan
nan 0 0 0 0 -0 0 0 0 0 0 -0 -0 0 -0 -0 -0 -0 -1 -0 -0 1 -0 0 -0 -2 -1 -0 -0 -1 -0 0 1 -0 -0 -1 1 -1 -1 0 0 -1 -1 -1 nan
nan -0 0 -0 0 0 0 0 -0 -0 -0 0 0 -0 -0 -0 -1 -0 -0 -1 -1 -0 1 0 -0 -1 -2 -1 1 -0 -1 -1 -0 -0 -0 -0 -0 0 -0 -0 -1 -1 -1 -1 nan
nan 0 -0 0 -0 0 -0 -0 0 -0 -0 -0 -0 -0 0 0 0 0 -0 -0 -0 -0 0 0 -0 -0 -1 -2 0 0 -0 -1 -0 -0 -0 -0 -0 -0 -2 -1 -1 -1 -1 -1 nan
nan nan nan nan nan nan nan nan nan nan nan nan nan nan nan nan nan nan nan nan nan nan nan nan nan nan nan nan nan nan nan nan nan nan nan nan nan nan nan nan nan nan nan nan nan
Wind_Speed
14 14 14 14 13 13 15 15 16 17 18 18 19 19 19 21 21 21 21 16 15 16 14 7 10 16 19 24 26 21 17 21 26 24 23 10 16 24 20 22 22 15 18 10 3
15 15 14 14 14 14 15 15 15 16 17 17 18 19 19 19 23 21 16 16 18 14 14 15 15 15 22 22 27 20 16 28 22 21 17 12 19 17 17 15 21 21 21 15 10
15 15 14 14 14 15 15 15 15 16 17 17 18 18 17 18 15 1 1 2 1 5 9 14 16 16 22 22 26 24 25 22 23 19 15 20 20 25 21 20 18 18 19 20 15
14 15 14 14 14 15 15 15 15 16 16 16 17 18 16 12 7 4 6 4 3 5 8 12 17 19 19 20 24 23 26 25 22 27 23 18 26 26 26 25 25 24 22 25 18
14 14 14 13 14 15 16 14 15 16 16 16 17 18 14 9 14 13 13 7 4 6 11 13 17 19 19 19 23 23 22 26 27 26 23 26 25 28 34 30 29 27 29 29 27
12 13 14 15 15 17 16 14 15 16 16 16 17 16 9 15 6 6 5 8 9 9 11 14 13 14 18 16 18 19 16 20 23 26 23 23 25 30 35 33 33 33 33 30 27
11 13 14 14 16 17 15 15 15 16 17 16 14 11 12 21 8 8 8 8 10 14 16 13 14 12 7 13 18 21 21 21 22 23 23 27 26 27 33 34 31 31 29 29 28
13 12 13 15 17 15 14 14 15 16 15 12 10 6 9 7 8 11 11 11 14 14 14 15 13 16 18 17 21 17 19 19 17 18 13 17 21 19 19 24 27 28 27 29 27
11 11 12 15 14 11 11 11 13 13 10 8 1 9 7 5 2 3 7 9 10 12 11 9 12 17 16 13 14 15 16 17 15 9 12 17 19 16 12 16 20 20 22 24 26
10 10 11 11 9 7 6 7 7 7 1 3 5 7 5 0 4 5 6 8 7 7 11 12 10 12 15 14 15 12 17 18 13 6 10 16 20 20 26 26 22 20 21 24 25
8 9 9 7 5 3 2 6 3 6 8 11 12 15 13 12 15 12 9 8 9 10 11 15 12 16 18 17 20 19 19 21 18 17 19 21 23 22 24 29 24 25 24 24 21
10 11 7 3 1 5 6 1 4 3 8 6 7 8 9 6 6 8 13 10 14 13 13 10 15 17 13 15 16 17 19 20 20 17 15 22 23 20 22 23 29 29 28 28 24
12 9 4 1 1 6 7 3 2 4 6 5 5 4 2 4 3 2 11 15 13 13 14 15 15 2 9 15 16 18 18 18 19 17 19 22 24 24 23 29 33 31 31 30 25
7 3 1 6 3 1 0 4 5 1 5 9 7 4 2 4 4 2 3 9 8 13 13 15 15 17 16 18 16 17 17 12 13 14 13 18 15 19 17 14 15 21 29 25 26
3 1 3 5 2 2 3 4 3 1 4 4 7 2 3 5 8 5 2 6 10 12 8 14 10 10 14 16 14 14 8 11 16 16 18 21 13 15 7 12 9 9 14 25 26
2 2 3 3 2 3 5 1 1 5 3 6 3 1 6 4 2 3 4 5 8 10 14 16 16 9 14 9 10 14 8 17 20 15 14 21 17 12 5 9 10 8 7 11 19
3 2 1 2 4 7 2 1 6 6 4 5 1 2 8 12 8 5 9 11 10 9 14 18 17 17 7 13 9 9 10 7 9 10 11 7 4 12 3 9 4 6 8 11 10
4 4 3 2 2 1 0 6 6 5 4 3 5 12 14 11 11 10 13 14 15 15 13 14 10 12 10 16 11 12 13 8 7 6 12 7 6 4 11 5 3 5 10 12 16
5 2 1 2 0 0 6 6 6 6 4 7 11 15 12 4 3 15 14 16 15 5 12 13 13 9 9 7 12 6 10 16 15 18 12 10 15 14 13 11 11 12 13 14 14
4 3 1 1 0 1 5 3 1 4 5 4 6 3 9 9 7 12 8 5 5 6 12 17 17 14 14 8 12 14 4 5 6 5 9 12 14 7 11 13 14 14 15 17 19
5 4 2 4 6 4 3 3 1 3 5 4 5 9 11 13 13 15 13 10 6 9 15 17 15 18 11 12 16 10 12 8 5 6 4 6 4 6 11 12 12 12 15 16 19
3 1 2 5 1 2 3 2 0 2 1 2 4 5 6 9 12 14 18 20 8 11 13 10 8 14 21 17 16 9 13 13 6 7 5 5 1 7 8 6 8 12 13 14 15
1 3 2 3 2 3 4 4 0 2 1 1 3 3 8 10 8 9 13 16 22 12 2 6 6 10 17 14 14 12 17 10 6 2 11 6 1 8 6 6 1 7 11 12 14
2 2 3 2 3 6 5 3 6 2 3 2 3 4 6 8 10 9 15 12 11 12 3 1 5 14 15 6 3 9 20 11 13 5 7 9 11 10 9 6 2 8 11 10 13
1 1 2 3 4 5 7 5 4 3 5 4 1 4 3 5 14 12 13 12 18 19 14 5 9 14 20 25 7 1 15 16 16 11 7 11 13 12 8 8 7 10 10 12 13
2 2 3 7 7 4 2 4 2 3 2 3 3 7 10 12 12 16 14 15 10 12 5 4 9 11 19 22 12 8 14 12 8 9 10 10 10 10 15 10 9 10 10 13 12
1 1 4 7 7 5 4 3 3 3 4 7 6 10 13 13 14 23 25 26 20 17 16 6 5 6 11 18 8 4 17 17 8 5 6 7 13 17 15 11 13 13 12 12 11
Wind_Direction
284 287 290 294 300 302 301 303 305 306 304 309 308 309 311 312 309 308 281 260 244 261 237 222 211 215 222 229 222 227 251 249 252 260 267 250 259 256 247 252 251 230 235 250 292
281 285 288 294 298 299 300 303 305 304 304 305 304 304 309 314 312 300 270 269 261 254 222 210 214 209 217 225 227 228 236 246 259 272 295 274 257 246 256 239 254 254 237 240 235
277 281 286 291 293 297 299 302 302 300 300 300 301 303 313 321 316 245 252 332 296 210 200 221 225 224 234 226 229 227 244 262 263 270 270 290 275 271 265 258 242 243 240 234 222
270 278 285 291 296 299 300 303 301 298 299 300 300 302 313 320 300 247 282 263 235 188 209 230 227 234 235 239 233 247 251 263 274 279 277 253 268 268 262 258 262 249 251 248 243
269 278 287 293 294 294 298 302 299 297 296 296 297 301 314 260 264 268 274 243 224 195 211 217 221 228 236 245 251 243 257 262 271 265 263 271 264 269 266 264 262 255 249 251 249
270 276 283 288 290 290 297 297 293 292 292 290 292 296 287 261 271 264 240 231 215 221 228 230 235 243 269 276 263 260 277 271 266 262 265 260 262 262 264 262 257 252 249 248 243
275 279 284 291 290 291 296 291 289 290 289 288 286 285 258 250 289 262 264 245 234 234 242 238 246 252 247 268 264 273 271 272 258 257 258 257 260 258 260 258 254 248 246 245 242
281 283 287 288 287 292 291 287 290 290 291 290 281 225 253 269 260 267 261 251 238 234 238 245 250 255 261 263 278 268 266 269 262 250 252 239 259 278 264 247 247 248 246 244 241
275 288 289 285 289 294 292 294 292 287 286 293 341 216 266 290 302 304 226 225 223 231 229 231 233 244 243 248 263 246 256 267 261 221 245 254 263 266 297 276 266 256 245 241 238
282 290 286 288 292 294 301 303 293 283 341 270 244 225 262 347 282 252 242 217 214 197 206 221 226 232 228 237 242 262 243 241 247 255 277 267 274 279 276 273 265 257 248 238 235
294 294 297 295 281 317 336 324 240 207 220 262 309 276 296 278 273 250 226 222 218 212 212 198 222 228 235 228 259 282 282 282 281 290 286 271 271 270 267 263 259 252 248 247 246
291 297 292 274 1 42 35 187 33 307 295 253 269 271 280 284 272 235 216 222 205 224 211 225 232 252 260 256 257 258 269 270 274 265 258 273 272 274 261 252 251 249 244 242 235
279 294 286 180 63 59 59 65 341 328 258 185 218 246 305 211 303 34 210 223 244 230 236 244 251 42 282 260 252 258 256 274 281 297 279 265 270 264 244 238 247 248 244 243 230
272 286 357 135 36 30 88 354 334 6 256 144 183 167 226 265 229 301 231 222 227 253 264 255 266 269 251 253 255 261 260 271 279 280 284 322 294 287 285 262 249 240 235 238 233
264 180 119 179 246 273 247 317 330 57 255 129 126 143 266 264 316 145 186 200 252 228 233 247 229 235 245 250 262 259 308 271 273 278 285 276 266 279 238 249 258 233 226 227 231
209 148 138 21 311 286 295 264 151 233 181 135 128 307 313 195 258 113 226 243 255 263 241 251 274 249 264 262 248 254 266 263 257 255 261 265 253 264 248 37 353 18 358 209 222
220 161 112 113 216 270 179 200 240 249 151 108 20 291 306 286 287 228 234 210 244 227 237 226 229 225 232 245 221 238 245 277 235 218 243 255 269 251 1 57 349 332 330 339 323
184 134 65 345 273 179 240 231 258 47 50 46 302 293 279 292 280 247 278 262 241 244 269 279 270 193 200 231 236 217 227 244 299 284 298 320 229 119 80 85 62 29 20 3 343
147 87 36 300 198 294 245 237 358 17 13 335 306 263 271 194 251 302 270 269 276 274 245 271 251 146 182 207 229 201 217 240 270 275 275 266 272 143 52 29 23 30 14 3 352
119 141 269 76 102 313 249 312 44 23 333 313 292 331 305 321 330 306 313 360 332 331 291 276 274 209 185 218 240 249 290 233 226 258 242 238 230 79 27 16 8 2 358 354 357
155 196 281 84 71 236 222 70 88 64 341 303 314 296 300 302 301 287 282 310 6 326 312 282 252 260 222 212 237 205 234 236 285 266 290 300 73 19 40 31 15 10 3 1 2
173 177 287 114 160 204 158 67 5 82 223 276 294 290 292 308 289 279 272 276 330 332 317 342 300 261 237 230 235 259 225 231 248 266 260 282 39 16 44 18 354 0 8 12 12
153 99 38 43 141 148 120 134 94 193 4 245 271 302 321 303 300 284 299 298 284 293 287 3 296 265 250 255 224 226 248 222 222 254 270 282 198 216 236 285 358 28 29 20 26
153 134 125 111 83 98 138 152 152 150 119 279 325 255 313 323 300 286 296 281 302 283 121 329 263 279 275 336 325 276 238 202 218 240 274 263 302 173 223 218 225 71 62 42 45
103 228 122 156 150 128 185 208 167 221 194 234 156 227 295 309 312 298 322 327 308 250 243 240 262 280 285 278 277 148 275 213 218 223 261 292 308 320 13 25 143 99 83 66 50
140 161 207 130 139 197 146 188 240 139 257 120 258 283 319 293 300 308 306 300 300 300 319 192 273 289 291 263 239 296 311 282 255 276 275 277 277 353 53 91 122 107 87 76 62
221 193 261 123 185 214 159 159 214 276 247 246 286 325 301 314 310 296 291 283 275 273 278 285 292 299 291 219 186 233 248 246 230 263 279 318 1 8 30 33 101 99 85 84 70
Height
1506 1504 1502 1500 1499 1497 1497 1495 1493 1491 1488 1486 1484 1482 1480 1478 1475 1474 1473 1472 1470 1468 1470 1474 1475 1476 1477 1476 1473 1472 1464 1449 1444 1443 1436 1436 1439 1441 1444 1444 1446 1448 1449 1447 1449
1502 1501 1499 1497 1496 1494 1493 1492 1490 1488 1486 1485 1482 1479 1476 1473 1470 1465 1468 1464 1464 1466 1467 1471 1472 1472 1472 1470 1469 1465 1455 1446 1439 1434 1433 1435 1439 1440 1440 1443 1446 1444 1446 1447 1451
1499 1498 1496 1494 1492 1491 1490 1488 1487 1485 1483 1482 1480 1477 1475 1472 1467 1464 1461 1462 1462 1463 1467 1470 1470 1468 1465 1462 1463 1460 1450 1443 1437 1437 1439 1441 1441 1442 1437 1435 1437 1442 1443 1444 1446
1495 1495 1494 1492 1489 1488 1486 1485 1483 1482 1480 1479 1477 1474 1473 1473 1465 1462 1459 1459 1460 1462 1465 1470 1469 1466 1462 1455 1455 1453 1450 1447 1442 1441 1441 1443 1444 1439 1436 1435 1437 1438 1440 1440 1440
1491 1491 1491 1489 1486 1484 1483 1482 1480 1478 1476 1475 1474 1472 1473 1472 1465 1459 1459 1459 1459 1461 1464 1466 1464 1462 1458 1454 1452 1448 1447 1445 1444 1442 1442 1442 1438 1437 1431 1433 1434 1434 1436 1436 1437
1488 1488 1487 1486 1483 1481 1480 1478 1476 1474 1472 1472 1470 1470 1470 1469 1460 1458 1458 1459 1461 1462 1463 1465 1461 1458 1456 1453 1449 1448 1444 1443 1441 1438 1437 1438 1434 1435 1428 1429 1427 1427 1427 1428 1429
1485 1484 1483 1482 1480 1477 1476 1474 1473 1470 1469 1468 1467 1465 1468 1461 1460 1459 1457 1458 1460 1461 1462 1463 1462 1459 1456 1456 1453 1450 1447 1441 1436 1434 1431 1434 1425 1421 1421 1421 1418 1417 1418 1420 1421
1482 1480 1479 1478 1476 1474 1472 1471 1469 1466 1464 1465 1464 1465 1460 1455 1456 1455 1455 1456 1457 1459 1460 1460 1460 1460 1459 1456 1455 1451 1446 1437 1423 1422 1422 1426 1419 1411 1407 1408 1408 1409 1410 1412 1414
1479 1477 1475 1475 1473 1472 1469 1467 1465 1463 1462 1461 1465 1466 1455 1450 1451 1453 1455 1455 1454 1455 1456 1457 1457 1459 1460 1456 1457 1445 1440 1426 1420 1417 1420 1419 1412 1404 1406 1406 1402 1401 1402 1404 1405
1476 1474 1472 1471 1470 1469 1466 1464 1463 1462 1460 1463 1464 1463 1452 1450 1452 1453 1454 1452 1452 1451 1454 1455 1454 1452 1451 1449 1444 1428 1425 1421 1418 1416 1419 1417 1412 1409 1407 1403 1400 1399 1398 1398 1398
1474 1471 1469 1469 1467 1467 1464 1466 1466 1464 1461 1458 1457 1453 1450 1452 1451 1450 1451 1450 1449 1448 1447 1449 1448 1442 1440 1440 1442 1434 1432 1429 1421 1419 1422 1416 1409 1404 1402 1399 1395 1394 1394 1394 1394
1472 1470 1467 1466 1465 1465 1464 1466 1464 1464 1459 1455 1453 1453 1450 1451 1449 1444 1447 1448 1442 1438 1438 1440 1441 1434 1433 1436 1437 1437 1436 1432 1421 1415 1418 1409 1400 1392 1390 1387 1387 1386 1387 1388 1391
1468 1468 1465 1464 1465 1465 1464 1464 1463 1463 1460 1452 1451 1450 1450 1451 1446 1441 1443 1441 1436 1435 1433 1434 1426 1435 1436 1435 1437 1431 1431 1425 1422 1412 1407 1400 1392 1381 1369 1376 1377 1377 1378 1381 1384
1467 1465 1464 1464 1466 1465 1466 1465 1462 1461 1449 1445 1446 1449 1448 1448 1445 1442 1441 1439 1436 1435 1431 1428 1428 1429 1431 1433 1430 1428 1419 1420 1423 1418 1409 1387 1393 1376 1367 1362 1363 1366 1371 1374 1378
1464 1463 1462 1463 1465 1468 1465 1460 1460 1463 1435 1441 1442 1447 1443 1445 1440 1439 1440 1438 1435 1432 1438 1431 1427 1431 1431 1428 1424 1423 1420 1425 1422 1418 1409 1397 1391 1371 1357 1362 1359 1359 1365 1371 1373
1462 1462 1463 1464 1466 1466 1461 1459 1462 1450 1430 1438 1440 1443 1439 1435 1435 1436 1439 1439 1435 1431 1429 1428 1424 1427 1424 1421 1424 1422 1426 1423 1414 1410 1410 1388 1383 1369 1354 1361 1360 1360 1360 1362 1366
1460 1461 1462 1461 1465 1461 1460 1463 1447 1433 1433 1439 1441 1444 1441 1434 1431 1430 1428 1430 1429 1428 1418 1413 1415 1418 1426 1424 1422 1423 1425 1421 1403 1401 1397 1368 1379 1366 1356 1366 1372 1373 1371 1371 1370
1459 1459 1462 1464 1460 1459 1462 1457 1442 1433 1437 1446 1446 1444 1439 1430 1431 1426 1427 1422 1417 1418 1418 1415 1412 1408 1415 1419 1415 1415 1419 1418 1410 1396 1394 1379 1375 1366 1365 1370 1374 1375 1378 1380 1379
1458 1460 1462 1461 1460 1459 1462 1445 1434 1443 1453 1453 1446 1437 1429 1428 1439 1433 1425 1418 1412 1409 1419 1412 1405 1407 1411 1414 1415 1411 1417 1409 1412 1397 1396 1379 1362 1357 1368 1372 1374 1379 1385 1390 1391
1461 1463 1463 1460 1459 1461 1455 1449 1447 1457 1460 1457 1452 1443 1440 1432 1441 1430 1428 1417 1417 1421 1420 1414 1411 1404 1405 1413 1411 1410 1410 1418 1412 1413 1395 1361 1358 1384 1384 1383 1390 1393 1395 1395 1391
1462 1461 1462 1460 1458 1458 1454 1450 1457 1462 1465 1461 1454 1451 1450 1449 1446 1444 1436 1426 1429 1432 1430 1419 1410 1406 1399 1405 1402 1407 1409 1410 1411 1405 1397 1383 1386 1395 1398 1399 1399 1397 1398 1397 1393
1462 1461 1462 1460 1461 1457 1452 1457 1466 1463 1465 1464 1463 1459 1456 1454 1450 1446 1443 1437 1434 1439 1437 1434 1424 1404 1394 1390 1388 1390 1396 1403 1410 1398 1393 1392 1393 1404 1402 1403 1403 1401 1401 1399 1396
1460 1461 1462 1460 1461 1455 1462 1463 1465 1463 1464 1463 1461 1460 1459 1456 1454 1444 1441 1440 1438 1438 1445 1447 1425 1412 1400 1393 1386 1389 1389 1389 1404 1409 1403 1402 1396 1402 1398 1398 1401 1400 1400 1401 1398
1463 1463 1463 1462 1462 1460 1462 1462 1463 1469 1468 1467 1465 1464 1461 1455 1450 1447 1443 1439 1439 1437 1442 1445 1440 1426 1403 1403 1406 1402 1386 1390 1400 1405 1397 1393 1382 1392 1388 1390 1397 1398 1400 1404 1400
1465 1463 1461 1462 1462 1462 1466 1465 1463 1467 1468 1465 1469 1467 1461 1459 1453 1444 1444 1444 1440 1435 1436 1441 1431 1425 1411 1395 1398 1403 1408 1387 1394 1394 1397 1387 1383 1378 1378 1385 1394 1400 1405 1405 1405
1464 1462 1463 1460 1465 1465 1469 1463 1462 1464 1467 1460 1467 1460 1458 1455 1450 1450 1448 1445 1442 1435 1436 1439 1431 1423 1420 1404 1400 1402 1399 1386 1384 1386 1385 1383 1381 1383 1385 1389 1395 1403 1407 1408 1409
1465 1463 1462 1462 1462 1462 1460 1464 1467 1469 1466 1464 1462 1462 1459 1454 1454 1451 1448 1445 1442 1440 1437 1441 1434 1430 1415 1397 1401 1409 1396 1388 1384 1382 1384 1388 1388 1389 1396 1395 1400 1407 1411 1413 1412